{"data":{"norad_id":65896,"intl_designator":"2025-224Q","name":"STARLINK-34906","alt_names":[],"object_type":"PAYLOAD","status":"ACTIVE","operator":null,"country":"US","launch_date":"2025-10-07","launch_site_code":"AFETR","launch_vehicle":null,"mission":null,"orbit_class":"UNKNOWN","rcs_meters":null,"size_class":null,"mass_kg":null,"dimensions":null,"purposes":["comms"],"wikipedia_slug":null,"has_3d_model":false,"image_url":null,"decayed_at":null,"tle_current":{"epoch":"2026-05-25T00:22:53.258016Z","epoch_age_seconds":70348,"freshness":"FRESH","line1":"1 65896U 25224Q   26145.01589419  .00010619  00000+0  35330-3 0  9997","line2":"2 65896  53.1590  16.5712 0000873 111.0948 249.0147 15.31714861 36567","mean_motion":15.31714861,"eccentricity":8.73e-5,"inclination_deg":53.159,"raan_deg":16.5712,"arg_perigee_deg":111.0948,"mean_anomaly_deg":249.0147,"bstar":0.0003533,"rev_number":3656,"period_min":94.012275826578,"perigee_km":470.09779262179,"apogee_km":471.29359881046,"semimajor_km":6848.8326957161,"source":"CELESTRAK","updated_at":"2026-05-25T13:38:20.981855Z"}}}